Flag for Brazil Weather past 2 weeks in Santa María, Rio Grande do Sul, Brazil

Now
59 °F

Light rain. Mostly cloudy.


Feels Like: 59 °F
Forecast: 45 / 63 °F
Wind: 5 mph from South

Location: Porto Alegre Aero-Porto

Current Time: May 29, 2015 at 6:30:19 AM

Latest Report: May 29, 2015 at 6:00 AM


Visibility: 3 mi

Pressure: 29.98 "Hg

Humidity: 88%

Dew point: 55 °F

Location of Santa MaríaLocation

Historic Weather in Santa María — Graph

°F

Santa María temperature yesterday

Maximum temperature yesterday: 64 °F (at 12:00 AM)
Minimum temperature yesterday: 46 °F (at 1:00 AM)
Average temperature yesterday: 61 °F

Past Weeks' High & Low Weather Summary

 TemperatureHumidityPressure
High88 °F (May 23, 3:00 PM)100% (May 14, 5:00 AM)30.27 "Hg (May 14, 5:00 AM)
Low32 °F (May 24, 10:00 AM)34% (May 28, 7:00 AM)29.71 "Hg (May 23, 10:00 PM)
Average69 °F79%30.07 "Hg
* Reported May 14 5:00 AM — May 29 5:00 AM, Santa María, Weather by CustomWeather, © 2015

Note: Actual official high and low records may vary slightly from our data, if they occured in-between our weather recording intervals... More about our weather records

Advertising

Santa María weather history for previous 24 hours

 ConditionsComfort  
Time TempWeatherWind HumidityBarometerVisibility
5:00 AM
Fri, May 29
61 °FOvercast.5 mph83%29.98 "Hg5 mi
4:00 AM59 °FOvercast.2 mph88%29.98 "Hg5 mi
3:00 AM59 °FPassing clouds.7 mph88%29.98 "Hg5 mi
2:00 AM61 °FPassing clouds.6 mph83%30.01 "Hg5 mi
1:00 AM61 °FPassing clouds.5 mph88%30.01 "Hg5 mi
12:00 AM61 °FPassing clouds.6 mph88%30.04 "Hg5 mi
11:00 PM
Thu, May 28
61 °FLight rain. Mostly cloudy.9 mph88%30.04 "Hg5 mi
10:00 PM61 °FPassing clouds.8 mph88%30.04 "HgN/A
9:00 PM61 °FMostly cloudy.6 mph88%30.04 "Hg6 mi
8:00 PM61 °FMostly cloudy.7 mph88%30.01 "Hg5 mi
7:00 PM61 °FFog.8 mph94%30.01 "Hg2 mi
6:00 PM61 °FLight rain. Fog.6 mph94%30.01 "Hg2 mi
5:00 PM63 °FOvercast.7 mph83%29.98 "Hg4 mi
4:00 PM61 °FLight rain. Fog.7 mph88%29.98 "Hg2 mi
3:00 PM63 °FLight rain. Fog.6 mph88%29.98 "Hg2 mi
2:00 PM64 °FPartly sunny.9 mph83%29.98 "Hg4 mi
1:00 PM64 °FFog.16 mph83%29.98 "Hg3 mi
12:00 PM64 °FFog.9 mph83%29.98 "Hg3 mi
11:00 AM64 °FFog.8 mph83%29.98 "Hg3 mi
10:00 AM63 °FRain. Fog.10 mph88%N/A3 mi
9:00 AM46 °FLight rain. Fog.10 mph100%29.95 "Hg3 mi
8:00 AM64 °FCloudy.12 mph83%29.95 "Hg5 mi
7:00 AM63 °FLight rain. Mostly cloudy.14 mph34%N/A4 mi
6:00 AM46 °FLight rain. Mostly cloudy.16 mph100%29.86 "Hg4 mi
Weather by CustomWeather, © 2015

See weather overviewHow to use our weather pages